Main page
METAR-TAF:

METAR-TAF

Airports :

Dehradun, India

Jolly Grant Airport

latitude: 30-11-23N, longitude: 78-10-49E, elevation: 558 m

Current weather observation

The report was made 6 hours and 51 minutes ago, at 10:30 UTC
Wind 3 kt from the West/Southwest
Temperature 31°C
Humidity 63%
Pressure 1001 hPa
Visibility: 5000 m
Scattered clouds at a height of 4000 ft
Broken clouds at a height of 7000 ft
haze

METAR: VIDN 261030Z 24003KT 5000 HZ SCT040 BKN070 31/23 Q1001

Time: 22:51 (17:21 UTC)


TAF: missing

Weather observations and forecasts of more than 4000 airports (METAR and TAF reports).

The available stations are represented by yellow and red dots on the map.

Hover mouse over dot to see the name of the station.

Then click to see weather observations and forecasts.

To change the map : click on the green buttons with a black cross to zoom in, on the green button with a dash to zoom out, or on the green arrows for adjacent maps.


METAR-TAF: